Location: Firdgum
(53.2488°N, 5.5615°E)
Time: 05:16:27
(UTC+00:00)

Daily predictions for brighter satellites

Satellite Brightness Start Highest point End
(mag) Time Altitude Azimuth Time Altitude Azimuth Time Altitude Azimuth
CZ-4C R/B 4.1 02:41:51 36° E 02:41:51 36° E 02:46:28 10° ESE
ATLAS 5 CENTAUR R/B 4.2 03:19:38 19° ENE 03:19:38 19° ENE 03:21:17 10° ENE
MSX 4.5 03:54:20 10° NNE 03:58:22 47° NNE 03:58:22 47° NNE
NOSS 2-1 (C) 4.3 04:07:45 74° ESE 04:07:45 74° ESE 04:14:07 10° SE
Cosmos 2297 Rocket 2.6 04:10:09 53° NNE 04:10:09 53° NNE 04:14:27 10° NNE
NOSS 2-1 (D) 4.2 04:11:13 78° ESE 04:11:13 78° ESE 04:17:43 10° SE
Cosmos 2227 Rocket 2.5 04:13:54 59° NNE 04:13:54 59° NNE 04:18:30 10° NNE
ATLAS CENTAUR R/B 3.6 04:21:19 19° NNE 04:21:19 19° NNE 04:23:49 10° NE
CZ-2C R/B 3.9 04:17:00 10° NNE 04:18:55 25° NNE 04:18:55 25° NNE
Cosmos 1092 Rocket 4.4 04:16:48 10° N 04:22:58 60° ENE 04:29:02 10° SSE
SKYMED 2 4.2 04:21:11 10° SSE 04:24:36 51° SE 04:24:36 51° SE
Cosmos 2219 4.0 04:27:50 37° N 04:27:50 37° N 04:31:40 10° NNE
CZ-4C R/B 2.9 04:27:04 56° WSW 04:27:31 57° SW 04:35:23 10° SSE
Cosmos 407 Rocket 4.3 04:29:54 39° S 04:29:54 39° S 04:33:20 10° S
Cosmos 1891 Rocket 4.4 04:22:37 10° S 04:29:04 85° W 04:35:26 10° N
Cosmos 1371 Rocket 4.5 04:26:33 18° S 04:30:20 58° ESE 04:35:28 10° NNE
Cosmos 1943 3.4 04:29:38 46° N 04:31:12 66° NE 04:36:47 10° SE
Cosmos 1140 Rocket 3.5 04:32:38 69° S 04:32:38 69° S 04:37:18 10° SSE
USA 234 3.4 04:27:46 10° ENE 04:34:18 72° SSE 04:36:57 39° SW
Cosmos 1464 Rocket 3.8 04:28:17 10° SSW 04:34:29 79° WNW 04:40:40 10° N
Cosmos 2082 Rocket 4.3 04:37:05 12° N 04:38:38 14° N 04:41:27 10° NE
SL-16 R/B 3.9 04:47:08 18° SSW 04:47:08 18° SSW 04:48:50 10° SSW
Okean 1-7 3.4 04:43:15 36° N 04:44:52 63° ENE 04:49:14 10° SSE
Cosmos 1933 Rocket 3.5 04:45:34 10° S 04:49:53 81° E 04:54:16 10° NNE
Cosmos 1603 3.6 04:48:58 50° NW 04:50:31 78° WSW 04:56:15 10° SSE
STARLINK 1050 4.3 04:53:54 37° SSE 04:53:54 37° SSE 04:56:16 10° SE
Cosmos 1072 Rocket 4.4 04:52:21 37° SW 04:54:34 55° WNW 05:00:38 10° N
STARLINK 1055 4.2 04:56:35 38° SSE 04:56:35 38° SSE 04:59:02 10° SE
NOSS 2-1 (E) 4.3 04:55:12 51° W 04:56:23 63° SW 05:03:34 10° SSE
Cosmos 1461 3.6 04:57:20 41° SSW 04:57:20 41° SSW 05:00:39 10° SSE
STARLINK 1022 4.2 04:58:31 39° SSE 04:58:31 39° SSE 05:01:03 10° SE
Meteor 1-27 Rocket 4.3 04:58:46 40° WSW 04:58:46 40° WSW 05:03:21 10° SSW
Cosmos 2082 3.6 04:57:20 50° WSW 04:58:33 62° NW 05:04:09 10° NNE
Okean 1 3.7 04:58:13 30° N 05:00:02 61° ENE 05:03:58 10° SSE
STARLINK 1042 4.1 05:01:49 40° SSE 05:01:49 40° SSE 05:04:27 10° SE
ATLAS 5 CENTAUR R/B 1.7 05:01:11 57° NW 05:01:24 57° NW 05:06:27 10° NE
Nadezhda 4 Rocket 4.0 04:59:09 21° NNW 05:03:15 53° W 05:09:13 10° SSW
STARLINK 1056 4.0 05:04:34 41° S 05:04:34 41° S 05:07:18 10° SE
Helios 1A Rocket 4.2 05:01:42 10° NNE 05:05:34 41° E 05:09:23 10° S
ALOS 2.6 05:01:20 10° NNE 05:06:00 65° ESE 05:10:38 10° S
Cosmos 724 4.5 05:00:39 10° SSW 05:06:39 74° SE 05:12:35 10° NE
STARLINK 1054 3.9 05:07:19 41° S 05:07:19 41° S 05:10:09 10° SE
STARLINK 1062 3.9 05:09:54 41° S 05:09:54 41° S 05:12:49 10° SE
Cosmos 2084 Rocket 4.5 05:11:26 32° SW 05:11:26 32° SW 05:14:49 10° S
STARLINK 1053 3.9 05:12:54 41° S 05:12:54 41° S 05:15:54 10° SE
COSMO-SKYMED 1 2.9 05:09:23 10° S 05:13:07 44° WSW 05:13:07 44° WSW
Cosmos 1624 Rocket 3.9 05:09:06 10° SSW 05:14:26 78° WNW 05:19:50 10° NNE
Okean O Rocket 2.3 05:10:19 10° NNE 05:14:38 56° ESE 05:18:58 10° S
STARLINK 1061 3.9 05:15:20 40° SSW 05:15:20 40° SSW 05:18:25 10° SE
STARLINK 1067 3.9 05:18:06 39° SSW 05:18:06 39° SSW 05:21:16 10° SE
Meteor 1-20 Rocket 4.4 05:12:55 10° S 05:18:45 80° E 05:24:37 10° NNE
Cosmos 1607 4.0 05:17:03 34° W 05:19:30 54° NW 05:25:34 10° NE
Cosmos 2056 Rocket 3.3 05:14:30 10° SSW 05:19:37 74° WNW 05:24:47 10° NNE
Cosmos 676 Rocket 4.3 05:18:53 39° WNW 05:20:01 44° WSW 05:25:00 10° S
STARLINK 1058 3.9 05:20:46 38° SSW 05:20:48 38° SSW 05:24:02 10° SE
Meteor 1-18 Rocket 4.1 05:16:29 10° NNW 05:22:04 80° W 05:27:37 10° S
Cosmos 1470 Rocket 4.0 05:22:35 40° NW 05:22:35 40° NW 05:26:23 10° N
USA 116 4.1 05:18:30 10° S 05:22:53 60° W 05:26:11 20° NNW
STARLINK 1027 4.2 05:23:41 28° S 05:23:41 28° S 05:25:51 10° SE
Cosmos 1703 Rocket 3.7 05:22:12 38° NW 05:23:27 50° W 05:27:44 10° S
STARLINK 1028 4.2 05:23:55 28° S 05:23:55 28° S 05:26:04 10° SE
STARLINK 1043 3.9 05:23:30 37° SSW 05:23:38 37° SSW 05:26:50 10° SE
STARLINK 1021 4.2 05:24:08 28° S 05:24:08 28° S 05:26:17 10° SE
STARLINK 1034 4.1 05:24:18 28° SSW 05:24:18 28° SSW 05:26:32 10° SE
STARLINK 1019 4.1 05:24:18 28° SSW 05:24:18 28° SSW 05:26:33 10° SE
STARLINK 1012 4.2 05:24:33 28° S 05:24:33 28° S 05:26:43 10° SE
STARLINK 1010 4.2 05:24:45 28° SSW 05:24:45 28° SSW 05:26:56 10° SE
CZ-4B DEB 4.2 05:18:53 10° NNE 05:24:27 89° WNW 05:30:00 10° SSW
STARLINK 1026 4.2 05:25:01 27° SSW 05:25:01 27° SSW 05:27:12 10° SSE
STARLINK 1013 4.2 05:25:14 27° SSW 05:25:14 27° SSW 05:27:26 10° SSE
STARLINK 1009 4.2 05:25:26 27° SSW 05:25:26 27° SSW 05:27:38 10° SSE
STARLINK 1015 4.2 05:25:38 27° SSW 05:25:38 27° SSW 05:27:51 10° SSE
STARLINK 1052 4.1 05:25:45 28° SSW 05:25:45 28° SSW 05:27:59 10° SSE
STARLINK 1016 4.2 05:25:51 27° SSW 05:25:51 27° SSW 05:28:04 10° SSE
Cosmos 2026 Rocket 3.9 05:19:33 10° NNW 05:25:41 74° W 05:31:53 10° S
STARLINK 1008 4.2 05:26:05 27° SSW 05:26:05 27° SSW 05:28:17 10° SSE
STARLINK 1014 4.2 05:26:18 27° SSW 05:26:18 27° SSW 05:28:31 10° SSE
STARLINK 1025 4.2 05:26:31 27° SSW 05:26:31 27° SSW 05:28:45 10° SSE
STARLINK 1017 4.2 05:26:36 27° SSW 05:26:36 27° SSW 05:28:49 10° SSE
STARLINK 1065 3.9 05:26:10 35° SW 05:26:23 36° SSW 05:29:35 10° SE
Cosmos 1340 3.9 05:22:56 10° S 05:26:31 44° E 05:30:08 10° NNE
Cosmos 1602 4.1 05:22:48 10° S 05:26:35 62° E 05:30:23 10° NNE
STARLINK 1023 4.2 05:26:57 27° SSW 05:26:57 27° SSW 05:29:11 10° SSE
STARLINK 1007 4.2 05:27:09 27° SSW 05:27:09 27° SSW 05:29:24 10° SSE
STARLINK 1048 4.2 05:27:23 27° SSW 05:27:23 27° SSW 05:29:38 10° SSE
STARLINK 1049 4.2 05:27:35 27° SSW 05:27:35 27° SSW 05:29:50 10° SSE
STARLINK 1051 4.1 05:27:48 27° SSW 05:27:48 27° SSW 05:30:04 10° SSE
STARLINK 1037 4.2 05:28:01 27° SSW 05:28:01 27° SSW 05:30:18 10° SSE
STARLINK 1059 4.1 05:28:14 27° SSW 05:28:14 27° SSW 05:30:31 10° SSE
STARLINK 1040 4.2 05:28:28 26° SSW 05:28:28 26° SSW 05:30:42 10° SSE
STARLINK 1057 4.2 05:28:27 27° SSW 05:28:27 27° SSW 05:30:44 10° SSE
STARLINK 1068 4.2 05:28:53 27° SSW 05:28:53 27° SSW 05:31:10 10° SSE
STARLINK 1029 4.2 05:29:06 27° SSW 05:29:06 27° SSW 05:31:23 10° SSE
STARLINK 1060 4.2 05:29:20 27° SSW 05:29:20 27° SSW 05:31:38 10° SSE
Cosmos 1484 Rocket 3.0 05:25:22 10° N 05:29:12 47° WNW 05:32:58 10° SW
STARLINK 1030 4.1 05:29:29 27° SSW 05:29:29 27° SSW 05:31:52 10° SSE
STARLINK 1063 4.0 05:29:02 34° SW 05:29:21 35° SSW 05:32:31 10° SE
STARLINK 1020 4.2 05:29:46 27° SSW 05:29:46 27° SSW 05:32:04 10° SSE
STARLINK 1033 4.2 05:30:24 26° SSW 05:30:24 26° SSW 05:32:43 10° SSE
STARLINK 1031 4.2 05:30:37 26° SSW 05:30:37 26° SSW 05:32:56 10° SSE
STARLINK 1024 4.1 05:30:47 27° SSW 05:30:47 27° SSW 05:33:11 10° SSE
STARLINK 1035 4.2 05:31:04 26° SSW 05:31:04 26° SSW 05:33:24 10° SSE
Cosmos 1954 Rocket 4.5 05:29:25 32° WNW 05:30:53 39° WSW 05:35:45 10° S
STARLINK 1032 4.2 05:31:16 26° SSW 05:31:16 26° SSW 05:33:36 10° SSE
STARLINK 1011 4.2 05:31:27 26° SSW 05:31:27 26° SSW 05:33:52 10° SSE
STARLINK 1036 4.2 05:31:42 26° SSW 05:31:42 26° SSW 05:34:03 10° SSE
STARLINK 1047 4.2 05:32:08 26° SSW 05:32:08 26° SSW 05:34:30 10° SSE
STARLINK 1064 4.0 05:31:39 32° SW 05:32:04 34° SSW 05:35:13 10° SE
PSLV R/B 4.1 05:28:58 10° N 05:32:54 47° WNW 05:36:51 10° SW
STARLINK 1041 4.1 05:34:23 31° SW 05:34:54 33° SSW 05:38:03 10° SE
STARLINK 1038 4.2 05:37:10 29° SW 05:37:46 32° SSW 05:40:53 10° SE
Cosmos 2263 Rocket 2.5 05:33:19 10° SSW 05:38:51 70° ESE 05:44:25 10° NE
Cosmos 2279 Rocket 4.3 05:34:12 10° S 05:40:21 72° E 05:46:35 10° NNE
Cosmos 1420 Rocket 4.0 05:35:17 10° SSW 05:40:30 86° ESE 05:45:43 10° NNE
STARLINK 1046 4.2 05:39:54 28° SW 05:40:38 30° SSW 05:43:42 10° SSE
STARLINK 1039 4.3 05:42:40 26° WSW 05:43:29 29° SSW 05:46:32 10° SSE
STARLINK 1045 4.3 05:43:36 26° WSW 05:44:28 29° SSW 05:47:30 10° SSE
SJ-7 4.5 05:40:57 10° NNE 05:45:01 79° ESE 05:49:01 10° S
Cosmos 1869 Rocket 3.4 05:40:45 10° SSW 05:45:05 76° WNW 05:49:27 10° N
Cosmos 1655 Rocket 4.1 05:39:22 10° N 05:45:40 83° E 05:51:54 10° SSE
Cosmos 1634 Rocket 3.9 05:39:41 10° SSW 05:45:53 72° WNW 05:52:06 10° N
SL-24 R/B 4.0 05:41:48 10° S 05:46:12 64° WSW 05:50:09 12° NNW
Cosmos 2034 Rocket 4.5 05:41:13 10° SW 05:47:03 38° WNW 05:52:58 10° N
Cosmos 1741 Rocket 4.0 05:43:11 18° NNW 05:47:07 64° WSW 05:52:16 10° S
Okean 3 3.4 05:44:06 10° N 05:48:18 90° NW 05:52:30 10° S
Cosmos 2227 4.2 05:42:50 10° SSW 05:48:37 82° WNW 05:54:26 10° NNE
Radarsat Rocket 4.5 05:43:10 10° NNE 05:49:11 69° ESE 05:55:48 10° S
Cosmos 1833 Rocket 4.4 05:48:02 10° NNW 05:52:39 25° NE 05:57:13 10° E
SJ-12 4.3 05:48:54 10° N 05:52:47 40° WNW 05:56:38 10° SW
Cosmos 2297 Rocket 3.3 05:51:59 21° WNW 05:53:41 24° NW 05:58:17 10° NNE
CZ-4B R/B 3.2 05:51:46 10° NNE 05:57:20 76° WNW 06:02:57 10° SSW
Cosmos 2227 Rocket 3.3 05:55:45 20° WNW 05:57:44 25° NW 06:02:21 10° NNE
CZ-2C R/B 3.9 05:56:18 10° NNW 05:58:18 16° NW 05:58:18 16° NW
FENGYUN 3A 3.7 05:55:04 10° N 06:00:20 55° WNW 06:05:34 10° SW
ATLAS CENTAUR R/B 2.5 05:57:30 15° NNW 06:00:41 37° NNE 06:04:33 10° E
Cosmos 1674 Rocket 3.9 05:57:33 10° N 06:01:56 68° ENE 06:06:15 10° SSE
Meteor 1-14 Rocket 4.3 05:57:35 10° SSW 06:03:32 71° WNW 06:09:33 10° N
NOAA 6 4.0 06:00:03 10° N 06:05:07 62° WNW 06:10:10 10° SSW
Cosmos 1452 Rocket 3.4 06:01:04 10° SSW 06:06:21 78° WNW 06:11:41 10° NNE
PAYLOAD B 4.3 06:01:00 10° N 06:06:22 52° WNW 06:11:42 10° SW
Cosmos 1346 Rocket 2.6 06:02:36 10° SSW 06:06:28 76° WNW 06:10:23 10° N
Meteor 1-25 Rocket 4.4 06:01:36 10° SW 06:07:02 49° WNW 06:12:35 10° N
Cosmos 1850 Rocket 4.4 06:04:09 14° NW 06:08:28 44° WSW 06:13:30 10° S
Cosmos 1943 4.2 06:11:29 16° WNW 06:14:51 27° WSW 06:19:29 10° SSW
CZ-4C R/B 4.3 06:12:17 14° W 06:15:05 17° WSW 06:19:41 10° SW
H-2A R/B 2.6 06:12:51 10° NNE 06:16:37 89° W 06:20:21 10° SSW
Timation 1 Rocket 4.3 06:10:40 10° SW 06:16:38 85° WNW 06:22:40 10° NNE
USA 234 3.3 06:10:53 10° ENE 06:17:23 70° NNW 06:23:53 10° W
YAOGAN 6 4.4 06:15:05 10° NNE 06:18:32 36° E 06:21:59 10° SSE
CZ-4 R/B 3.6 06:15:50 10° NE 06:19:11 27° E 06:22:33 10° SSE
Okean 1-7 4.5 06:20:10 15° NW 06:21:59 18° W 06:25:00 10° SW
Cosmos 1378 Rocket 3.7 06:18:20 10° N 06:22:46 80° ENE 06:27:12 10° SSE
Cosmos 2082 Rocket 3.8 06:20:01 10° NNW 06:24:48 27° NE 06:29:34 10° E
Cosmos 405 3.0 06:23:24 10° NNW 06:26:57 65° W 06:30:27 10° S
ADEOS Rocket 3.3 06:22:03 10° S 06:28:58 62° WSW 06:35:13 10° NNW
CZ-2C R/B 3.9 06:25:13 10° S 06:29:53 63° WSW 06:34:40 10° NNW
Cosmos 371 Rocket 3.6 06:30:24 10° SSW 06:35:14 72° ESE 06:40:07 10° NNE
SMAP 3.0 06:30:52 10° N 06:35:31 70° WNW 06:40:09 10° SSW
Meteor 2-4 Rocket 4.0 06:31:33 10° NNW 06:36:49 43° W 06:41:55 10° SSW
Meteor 1-5 Rocket 4.3 06:33:08 10° SSW 06:39:06 84° WNW 06:44:59 10° NNE
Helios 1A Rocket 3.8 06:37:12 10° N 06:40:35 26° WNW 06:43:57 10° WSW
ALOS 3.4 06:39:26 10° N 06:43:03 22° WNW 06:46:39 10° WSW
NOAA 12 4.2 06:41:03 10° NNE 06:46:21 88° ESE 06:51:35 10° SSW
CZ-2C R/B 3.3 06:41:30 10° SE 06:46:40 55° ENE 06:51:46 10° N
ATLAS 5 CENTAUR R/B 3.0 06:42:51 10° WNW 06:47:01 28° N 06:51:44 10° NE
Cosmos 968 Rocket 4.0 06:42:08 10° NNW 06:47:16 58° ENE 06:52:20 10° SE
Cosmos 44 3.7 06:44:26 10° SSW 06:49:05 65° SE 06:53:32 10° NE
Cosmos 1908 Rocket 4.0 06:44:46 10° S 06:49:13 70° E 06:53:42 10° NNE
Okean O Rocket 2.7 06:47:15 10° N 06:50:42 23° WNW 06:54:10 10° WSW
CORIOLIS 4.2 06:48:02 10° NNE 06:53:28 70° WNW 06:58:50 10° SSW
Cosmos 2266 Rocket 4.2 06:47:49 10° NNW 06:53:51 51° W 06:59:47 10° SSW
Feng Yun 1-1 Rocket 4.3 06:50:58 10° NNE 06:56:26 63° WNW 07:02:00 10° SSW
Cosmos 1066 Rocket 4.2 06:51:28 10° NNW 06:57:10 81° W 07:02:39 10° S
Okean 2 4.2 06:54:14 10° N 06:58:16 53° ENE 07:02:16 10° SSE
USA 81 4.2 06:53:59 10° NNW 06:59:11 59° W 07:04:21 10° S
Cosmos 1331 Rocket 4.0 06:55:32 10° SSW 07:00:42 80° WNW 07:05:56 10° NNE
